Location: Joplin, MO
(37.0842°N, 94.5133°W)
Time: 19:41:45
(UTC+02:00)

Courier 1B Rocket - Pass Details

Date: 08 April 2023
Orbit: 920 x 1202 km, 28.2° (Epoch: 08 June)

Event Time Altitude Azimuth Distance (km) Brightness Sun altitude
Rises 02:55:03 0° 265° (W) 4,082 10.1 -2.6°
Reaches altitude 10° 02:58:16 10° 256° (WSW) 3,098 8.9 -3.3°
Maximum altitude 03:04:51 32° 197° (SSW) 1,869 6.6 -4.6°
Drops below altitude 10° 03:11:08 10° 138° (SE) 2,950 7.0 -5.8°
Enters shadow 03:13:13 - 131° (SE) 3,570 7.4 -6.2°
Sets 03:14:08 0° 128° (SE) 3,860 - -6.4°
